Weather History for Cody, WY

Change the Weather History Date:

Monday, August 19, 2013

  Actual Average Record
Temperature  
Mean Temperature 74 °F -  
Max Temperature 91 °F 80 °F 95 °F (1961)
Min Temperature 57 °F 52 °F 38 °F (1920)
Cooling Degree Days 9    
Growing Degree Days 24 (Base 50)    
Moisture  
Dew Point 41 °F    
Average Humidity 32    
Maximum Humidity 55    
Minimum Humidity 14    
Precipitation  
Precipitation 0.00 in - - ()
Sea Level Pressure  
Sea Level Pressure 30.08 in    
Wind  
Wind Speed 5 mph (West)    
Max Wind Speed 12 mph    
Max Gust Speed 16 mph    
Visibility 10 miles    
Events      
Averages and records for this station are not official NWS values.
T = Trace of Precipitation, MM = Missing Value Source: NWS Daily Summary

Daily Weather History Graph

Daily Weather History Graph

Search for Another Location

Airport:

Trip Planner

Search our weather history database for the weather conditions in past years. The results will help you decide how hot, cold, wet, or windy it might be!

Date:

Astronomy

Aug. 19, 2013 Rise Set
Actual Time 6:23 AM MDT 8:14 PM MDT
Civil Twilight 5:52 AM MDT 8:45 PM MDT
Nautical Twilight 5:14 AM MDT 9:23 PM MDT
Astronomical Twilight 4:33 AM MDT 10:04 PM MDT
Moon 7:07 PM MDT (8/19) 4:45 AM MDT (8/19)
Length of Visible Light 14h 52m
Length of Day
13h 50m
Waxing Gibbous, 97% of the Moon is Illuminated
Aug 19
Waxing Gibbous
Aug 20
Full
Aug 28
Last Quarter
Sep 5
New
Sep 12
First Quarter

Hourly Weather History & Observations

Time (MDT) Temp. Dew Point Humidity Pressure Visibility Wind Dir Wind Speed Gust Speed Precip Events Conditions
12:15 AM 69.8 °F 44.6 °F 40% 30.11 in 10.0 mi WSW 8.1 mph - N/A   Clear
12:35 AM 69.8 °F 42.8 °F 38% 30.11 in 10.0 mi North 4.6 mph - N/A   Clear
12:55 AM 71.6 °F 42.8 °F 35% 30.11 in 10.0 mi WSW 5.8 mph - N/A   Clear
1:15 AM 69.8 °F 41.0 °F 35% 30.11 in 10.0 mi South 9.2 mph - N/A   Clear
1:35 AM 66.2 °F 41.0 °F 40% 30.11 in 10.0 mi South 9.2 mph - N/A   Clear
1:55 AM 66.2 °F 42.8 °F 43% 30.11 in 10.0 mi Calm Calm - N/A   Clear
2:15 AM 64.4 °F 42.8 °F 45% 30.11 in 10.0 mi Calm Calm - N/A   Clear
2:35 AM 66.2 °F 42.8 °F 43% 30.10 in 10.0 mi SW 4.6 mph - N/A   Clear
2:55 AM 69.8 °F 41.0 °F 35% 30.11 in 10.0 mi SW 11.5 mph - N/A   Clear
3:15 AM 69.8 °F 41.0 °F 35% 30.10 in 10.0 mi WSW 5.8 mph - N/A   Clear
3:35 AM 68.0 °F 39.2 °F 35% 30.10 in 10.0 mi SSW 3.5 mph - N/A   Clear
3:55 AM 68.0 °F 39.2 °F 35% 30.10 in 10.0 mi SW 10.4 mph - N/A   Clear
4:15 AM 62.6 °F 41.0 °F 45% 30.10 in 10.0 mi Calm Calm - N/A   Clear
4:35 AM 60.8 °F 41.0 °F 48% 30.10 in 10.0 mi Calm Calm - N/A   Clear
4:55 AM 60.8 °F 39.2 °F 45% 30.10 in 10.0 mi ENE 3.5 mph - N/A   Clear
5:15 AM 60.8 °F 39.2 °F 45% 30.10 in 10.0 mi Calm Calm - N/A   Clear
5:35 AM 60.8 °F 37.4 °F 42% 30.10 in 10.0 mi South 5.8 mph - N/A   Clear
5:55 AM 60.8 °F 39.2 °F 45% 30.10 in 10.0 mi South 5.8 mph - N/A   Clear
6:35 AM 62.6 °F 39.2 °F 42% 30.11 in 10.0 mi SW 6.9 mph - N/A   Clear
6:55 AM 62.6 °F 37.4 °F 39% 30.12 in 10.0 mi Calm Calm - N/A   Clear
7:15 AM 57.2 °F 41.0 °F 55% 30.13 in 10.0 mi NNE 3.5 mph - N/A   Clear
7:35 AM 59.0 °F 41.0 °F 51% 30.13 in 10.0 mi Calm Calm - N/A   Clear
7:55 AM 60.8 °F 44.6 °F 55% 30.14 in 10.0 mi Calm Calm - N/A   Clear
8:16 AM 62.6 °F 42.8 °F 48% 30.14 in 10.0 mi SSW 3.5 mph - N/A   Clear
8:35 AM 64.4 °F 42.8 °F 45% 30.15 in 10.0 mi SW 3.5 mph - N/A   Clear
8:55 AM 69.8 °F 41.0 °F 35% 30.15 in 10.0 mi Calm Calm - N/A   Clear
9:15 AM 73.4 °F 48.2 °F 41% 30.15 in 10.0 mi Calm Calm - N/A   Clear
9:35 AM 75.2 °F 44.6 °F 34% 30.14 in 10.0 mi Calm Calm - N/A   Clear
10:15 AM 75.2 °F 44.6 °F 34% 30.13 in 10.0 mi NE 5.8 mph - N/A   Clear
10:35 AM 77.0 °F 48.2 °F 36% 30.13 in 10.0 mi NNE 6.9 mph - N/A   Clear
11:15 AM 78.8 °F 46.4 °F 32% 30.12 in 10.0 mi NE 6.9 mph - N/A   Clear
11:55 AM 80.6 °F 46.4 °F 30% 30.10 in 10.0 mi NE 5.8 mph - N/A   Clear
12:15 PM 82.4 °F 46.4 °F 28% 30.10 in 10.0 mi North 6.9 mph - N/A   Clear
12:35 PM 82.4 °F 46.4 °F 28% 30.09 in 10.0 mi NE 6.9 mph - N/A   Clear
1:15 PM 87.8 °F 46.4 °F 24% 30.08 in 10.0 mi North 4.6 mph - N/A   Clear
1:35 PM 86.0 °F 42.8 °F 22% 30.07 in 10.0 mi SE 6.9 mph - N/A   Clear
1:55 PM 89.6 °F 39.2 °F 17% 30.06 in 5.0 mi SE 10.4 mph 16.1 mph N/A   Clear
2:15 PM 89.6 °F 37.4 °F 16% 30.06 in 6.0 mi East 6.9 mph - N/A   Clear
2:35 PM 89.6 °F 37.4 °F 16% 30.06 in 5.0 mi Calm Calm - N/A   Clear
2:55 PM 89.6 °F 39.2 °F 17% 30.05 in 10.0 mi WNW 9.2 mph - N/A   Clear
3:15 PM 91.4 °F 37.4 °F 15% 30.04 in 9.0 mi WSW 6.9 mph - N/A   Clear
3:35 PM 89.6 °F 37.4 °F 16% 30.03 in 10.0 mi West 10.4 mph - N/A   Clear
3:55 PM 91.4 °F 37.4 °F 15% 30.02 in 10.0 mi WSW 4.6 mph - N/A   Clear
4:15 PM 91.4 °F 35.6 °F 14% 30.01 in 10.0 mi WSW 9.2 mph - N/A   Clear
4:35 PM 91.4 °F 37.4 °F 15% 30.01 in 10.0 mi West 9.2 mph - N/A   Clear
5:35 PM 89.6 °F 35.6 °F 15% 30.00 in 10.0 mi Calm Calm - N/A   Clear
5:55 PM 84.2 °F 48.2 °F 29% 30.00 in 10.0 mi North 5.8 mph - N/A   Clear
6:15 PM 84.2 °F 44.6 °F 25% 30.00 in 10.0 mi NNE 4.6 mph - N/A   Clear
6:35 PM 84.2 °F 44.6 °F 25% 30.00 in 10.0 mi NE 9.2 mph - N/A   Clear
6:55 PM 84.2 °F 44.6 °F 25% 30.00 in 10.0 mi ENE 4.6 mph - N/A   Clear
7:15 PM 84.2 °F 42.8 °F 23% 30.01 in 10.0 mi NE 6.9 mph - N/A   Clear
7:35 PM 80.6 °F 44.6 °F 28% 30.01 in 10.0 mi Calm Calm - N/A   Clear
7:55 PM 82.4 °F 41.0 °F 23% 30.02 in 10.0 mi NE 4.6 mph - N/A   Clear
8:15 PM 78.8 °F 42.8 °F 28% 30.02 in 10.0 mi West 3.5 mph - N/A   Clear
8:55 PM 75.2 °F 41.0 °F 29% 30.03 in 10.0 mi WNW 3.5 mph - N/A   Clear
9:15 PM 75.2 °F 41.0 °F 29% 30.04 in 10.0 mi Calm Calm - N/A   Clear
9:35 PM 75.2 °F 39.2 °F 27% 30.04 in 10.0 mi WNW 3.5 mph - N/A   Clear
9:55 PM 75.2 °F 39.2 °F 27% 30.05 in 10.0 mi Calm Calm - N/A   Clear
10:15 PM 71.6 °F 39.2 °F 31% 30.05 in 10.0 mi Calm Calm - N/A   Clear
10:35 PM 69.8 °F 39.2 °F 33% 30.05 in 10.0 mi SSW 3.5 mph - N/A   Clear
11:35 PM 68.0 °F 39.2 °F 35% 30.05 in 10.0 mi Calm Calm - N/A   Partly Cloudy
11:55 PM 73.4 °F 32.0 °F 22% 30.04 in 10.0 mi SW 8.1 mph - N/A   Scattered Clouds